DW8795 Weather Reports


time (UTC)temp
C
wind
direction
speed
KPH
gust
KPH
rain 1hr
cm
rain 24hr
cm
rain mn
cm
humidity
%
barometer
mb
20260504050020 2 155 0.0 0.0 0.00 0.00 0.00 66 1016.5
20260504044524 2 155 0.0 0.0 0.00 0.00 0.00 74 1016.4
20260504043009 2 155 0.0 0.0 0.00 0.00 0.00 75 1016.2
20260504041509 3 155 0.0 0.0 0.00 0.00 0.00 79 1016.1
20260504040016 3 155 0.0 0.0 0.00 0.00 0.00 81 1016.1
20260504034522 3 155 0.0 0.0 0.00 0.00 0.00 82 1016.0
20260504033003 3 155 0.0 0.0 0.00 0.00 0.00 83 1015.8
20260504031511 4 155 0.0 0.0 0.00 0.00 0.00 83 1015.7
20260504030015 4 155 0.0 0.0 0.00 0.00 0.00 83 1015.7
20260504024516 5 155 0.0 0.0 0.00 0.00 0.00 82 1015.7
20260504023022 5 155 0.0 0.0 0.00 0.00 0.00 81 1015.6
20260504021523 5 155 0.0 0.0 0.00 0.00 0.00 78 1015.6
20260504020007 6 155 0.0 0.0 0.00 0.00 0.00 76 1015.6
20260504014511 6 155 0.0 0.0 0.00 0.00 0.00 72 1015.5
20260504013033 7 155 0.0 0.0 0.00 0.00 0.00 69 1015.5
20260504011522 7 155 0.0 0.0 0.00 0.00 0.00 66 1015.4
20260504010025 8 155 0.0 0.0 0.00 0.00 0.00 62 1015.2
20260504004538 9 155 0.0 0.0 0.00 0.00 0.00 57 1015.1
20260504003011 10 155 0.0 0.0 0.00 0.00 0.00 53 1014.9
20260504001529 11 155 0.0 0.0 0.00 0.00 0.00 50 1014.7
20260504000024 12 167 0.0 0.0 0.00 0.00 0.00 43 1014.7
20260503234527 13 167 0.0 1.6 0.00 0.00 0.00 40 1014.5
20260503233012 14 252 0.0 1.6 0.00 0.00 0.00 39 1014.3
20260503231514 14 326 0.0 4.8 0.00 0.00 0.00 37 1014.3
20260503230022 15 336 3.2 8.0 0.00 0.00 0.00 37 1014.3
20260503224522 15 338 0.0 8.0 0.00 0.00 0.00 37 1014.3
20260503223026 15 195 1.6 8.0 0.00 0.00 0.00 36 1014.2
20260503221532 15 8 1.6 6.4 0.00 0.00 0.00 36 1014.3
20260503220027 15 341 1.6 4.8 0.00 0.00 0.00 35 1014.3
20260503214532 15 349 4.8 8.0 0.00 0.00 0.00 34 1014.2
20260503213005 15 357 1.6 8.0 0.00 0.00 0.00 35 1014.2
20260503211508 15 342 1.6 6.4 0.00 0.00 0.00 35 1014.0
20260503210018 15 344 3.2 12.9 0.00 0.00 0.00 33 1014.3
20260503204524 15 104 0.0 9.7 0.00 0.00 0.00 36 1014.2
20260503203006 15 337 1.6 14.5 0.00 0.00 0.00 37 1014.4
20260503201514 15 336 4.8 9.7 0.00 0.00 0.00 36 1014.5
20260503200012 15 345 6.4 12.9 0.00 0.00 0.00 34 1014.6
20260503194513 15 10 1.6 19.3 0.00 0.00 0.00 38 1014.9
20260503193018 15 353 4.8 14.5 0.00 0.00 0.00 38 1015.0
20260503191504 14 334 4.8 9.7 0.00 0.00 0.00 36 1015.1
20260503190014 14 68 1.6 9.7 0.00 0.00 0.00 46 1015.2
20260503184514 14 328 4.8 16.1 0.00 0.00 0.00 38 1015.3
20260503183018 14 352 6.4 14.5 0.00 0.00 0.00 42 1015.6
20260503181538 14 332 3.2 12.9 0.00 0.00 0.00 39 1015.7
20260503180037 13 332 4.8 8.0 0.00 0.00 0.00 40 1015.7
20260503174508 13 276 3.2 14.5 0.00 0.00 0.00 41 1015.7
20260503173014 12 335 4.8 12.9 0.00 0.00 0.00 39 1015.8
20260503171524 12 327 6.4 12.9 0.00 0.00 0.00 38 1016.0
20260503081511 5 311 0.0 3.2 0.00 0.00 0.00 71 1013.9
20260503071506 5 330 1.6 4.8 0.00 0.00 0.00 73 1013.3
20260503054518 6 341 1.6 3.2 0.00 0.00 0.00 72 1013.5